Wind_Speed
26 25 24 23 21 20 21 21 21 19 18 19 18 16 17 18 17 15 14 14 14 14 14 14 14 13 13 12 12 12 11 11 10 10 10 9 9 8 8 8 8 8 7 7 8 8 8 9 10 11 11 11 11 11 10 9 9 9 9 9 10 10 10 12 12 13 14 14 14 15 14 14 15 14 13 14 14 13 13 14 16 16 16 15 15
26 24 23 22 22 22 23 23 21 20 20 21 20 19 21 22 20 18 17 17 16 16 15 15 15 15 14 13 13 12 12 12 11 10 11 10 10 10 9 9 10 9 9 9 9 9 10 11 11 10 11 11 11 11 11 10 10 10 9 9 11 11 10 12 13 13 14 13 13 14 14 14 15 15 14 14 14 14 14 15 16 15 15 16 16
25 23 23 24 25 26 26 24 23 21 23 25 24 22 23 23 23 23 21 19 19 19 18 17 16 16 15 14 14 14 13 13 12 12 12 12 11 11 11 11 11 11 11 11 12 11 12 12 12 11 11 11 12 11 11 10 9 9 9 9 11 12 11 12 13 14 15 14 13 14 14 14 16 16 15 15 14 14 15 16 16 15 15 16 17
24 23 25 27 29 30 26 24 25 25 25 26 24 22 20 20 22 24 22 20 20 20 19 18 17 17 16 15 15 15 15 14 14 13 13 13 13 13 13 12 12 13 13 13 14 14 13 14 13 11 11 11 12 11 11 10 10 9 9 9 11 12 12 12 13 14 15 15 14 15 14 14 16 16 16 16 15 15 15 16 16 16 17 17 17
24 25 27 29 31 33 29 26 26 25 24 25 25 23 19 18 19 23 24 22 21 21 21 20 20 20 19 18 17 17 16 15 15 15 14 14 14 15 14 14 14 14 15 15 15 15 15 15 14 12 12 12 12 12 11 11 11 10 10 10 11 12 12 12 13 14 16 16 16 16 14 14 15 15 15 16 16 16 15 16 16 17 17 17 18
26 27 28 28 31 32 29 26 26 26 27 28 27 26 26 26 26 27 29 28 26 25 24 23 23 24 23 21 18 17 17 17 16 16 16 15 15 15 15 15 15 15 16 16 15 15 15 15 15 14 13 13 13 13 13 12 12 12 12 12 12 13 13 14 14 14 16 17 17 16 15 14 15 14 14 15 16 16 16 16 17 17 17 17 18
27 28 28 27 27 27 26 26 27 30 33 34 31 30 32 32 31 32 33 31 29 27 25 24 25 26 25 24 21 18 17 18 18 17 17 16 16 16 16 16 16 16 16 16 15 15 16 16 16 15 15 15 15 15 14 14 14 13 13 13 13 14 14 15 15 15 16 17 17 17 15 14 14 15 14 15 16 16 16 16 17 17 17 18 19
26 27 26 24 23 23 24 29 35 37 36 37 36 36 37 36 34 35 33 29 27 26 24 24 24 24 24 24 23 21 18 18 18 18 18 18 17 17 16 16 16 16 16 16 15 15 15 16 16 16 16 16 16 16 15 14 14 13 14 14 14 15 15 15 16 16 16 17 17 16 15 15 15 15 15 15 16 17 16 16 17 18 19 19 19
24 24 23 21 21 22 24 31 39 40 36 38 40 40 40 40 38 36 34 31 28 25 23 22 22 22 24 25 25 24 20 19 19 20 19 18 17 16 17 16 16 16 16 16 15 15 16 16 16 16 17 17 18 19 18 17 16 15 15 14 15 16 16 15 16 16 16 17 16 16 16 15 15 16 16 16 17 18 17 17 18 20 20 21 21
23 23 22 21 22 25 26 28 36 39 38 39 42 42 41 40 37 37 36 32 28 26 24 21 20 21 24 26 26 25 22 20 21 22 21 20 17 15 15 15 15 16 16 16 16 16 16 16 16 16 18 20 21 22 22 21 20 20 19 19 18 18 17 16 16 16 17 17 17 16 16 16 17 17 17 18 18 19 18 18 19 20 21 21 21
24 22 21 22 25 28 27 26 33 40 41 39 41 42 40 36 34 36 36 31 28 27 25 22 20 20 21 22 24 24 23 21 22 24 25 24 21 17 15 15 15 16 16 16 16 16 16 16 15 15 17 20 21 21 21 21 21 22 22 22 21 21 19 18 17 17 18 18 18 17 17 18 18 18 19 19 19 18 18 19 19 20 20 19 19
23 21 23 25 27 29 28 26 29 37 41 40 38 36 33 29 29 31 32 31 29 26 24 23 21 20 19 20 21 21 22 21 22 24 24 23 22 19 17 16 16 16 16 16 16 16 16 16 15 15 16 17 18 18 18 19 21 23 23 21 20 20 21 21 20 19 19 18 18 18 18 19 20 20 19 19 19 19 19 19 19 19 21 20 20
22 22 25 27 28 28 27 26 27 31 38 39 32 27 26 25 26 26 27 30 30 28 28 26 22 21 20 20 20 18 17 18 20 22 22 22 20 19 19 19 17 17 17 16 16 17 18 18 17 16 16 16 17 18 17 17 19 21 21 19 18 18 20 22 22 21 21 20 19 20 20 20 21 20 19 18 19 19 19 18 18 19 22 22 23
22 24 26 27 27 27 26 27 28 29 33 34 28 25 25 25 25 25 25 26 27 27 29 25 21 22 22 20 18 17 16 17 19 20 20 22 22 21 21 21 19 18 18 17 18 18 19 19 18 18 18 17 16 16 15 15 15 16 16 15 15 15 15 16 17 19 20 20 21 22 22 21 21 21 20 18 18 20 19 19 19 21 23 23 23
21 24 26 26 26 25 25 28 28 27 29 29 25 24 25 24 23 23 21 21 21 22 23 20 18 20 20 18 16 15 16 18 20 19 19 21 22 22 22 21 19 19 18 18 19 20 20 20 20 20 19 17 16 16 16 14 13 14 14 14 14 13 13 14 14 15 17 18 19 21 21 19 19 19 19 19 20 21 21 20 20 21 23 23 24
21 22 24 24 24 24 25 27 27 26 28 29 25 24 25 25 22 20 17 17 18 18 18 18 18 18 17 15 15 14 15 16 18 18 18 20 21 21 22 21 19 19 19 20 21 20 20 19 17 17 17 16 17 20 21 19 16 16 16 15 13 13 15 17 16 16 18 18 18 19 20 21 21 23 24 25 25 21 18 18 17 19 22 23 22
20 21 22 22 22 24 25 26 26 26 27 28 27 26 27 25 21 20 19 18 18 18 17 17 18 17 15 14 14 14 14 16 17 18 18 19 19 20 20 19 17 18 19 20 21 20 19 17 16 19 20 19 18 20 23 22 19 17 16 14 13 14 16 16 15 15 17 18 17 17 18 19 21 23 23 23 22 18 14 15 17 18 20 19 18
18 19 21 21 21 23 25 26 26 25 25 27 27 27 27 25 21 19 20 19 18 17 16 16 16 14 13 12 13 14 15 14 14 16 17 17 17 18 17 15 15 16 17 18 19 19 19 19 22 24 25 23 23 24 24 22 18 16 15 14 13 15 15 13 12 13 14 15 16 16 17 17 18 18 18 17 17 16 15 17 18 19 20 19 18
17 18 20 21 20 22 24 25 25 24 24 25 25 24 24 22 19 17 18 19 17 15 17 19 16 12 10 10 12 14 14 13 13 15 15 15 15 16 14 14 15 15 15 17 19 18 17 18 22 24 22 22 24 25 23 20 17 15 15 14 15 15 13 11 11 11 11 13 14 15 16 17 17 17 17 17 18 18 19 20 20 20 21 22 22
16 17 18 19 19 21 23 24 24 22 22 22 22 22 20 18 17 16 17 19 18 16 17 19 15 10 7 6 9 12 13 12 12 13 13 13 13 13 12 13 14 14 15 17 18 17 17 16 17 20 19 17 19 21 21 19 17 15 15 14 14 13 12 10 10 11 11 13 15 16 17 17 17 16 16 15 16 17 18 19 20 20 21 22 22
14 15 16 17 18 20 21 22 22 21 20 19 19 19 17 16 16 16 16 18 20 19 18 16 11 8 6 6 10 12 11 9 9 10 11 11 10 10 10 11 12 13 15 16 17 17 16 14 14 16 16 14 14 16 18 17 16 14 14 14 14 14 14 13 11 11 11 13 15 16 16 16 16 15 15 15 16 16 17 18 19 19 19 20 22
13 14 15 15 17 19 19 19 19 18 17 18 17 16 14 14 16 17 16 18 20 20 17 13 8 6 4 6 8 9 10 9 8 9 10 9 8 8 9 10 11 13 14 16 17 16 15 14 12 12 13 13 12 13 15 15 16 15 15 15 16 16 17 14 11 10 11 13 14 15 15 16 16 16 17 18 19 19 19 19 19 18 20 21 22
14 14 15 15 16 18 19 19 18 16 17 18 18 16 14 14 16 18 17 18 19 18 13 11 9 6 4 5 6 7 9 8 6 6 8 9 9 10 11 12 13 13 13 15 16 16 15 13 11 11 12 12 12 12 14 15 15 14 14 15 15 16 16 14 10 10 11 13 14 15 16 16 17 18 19 20 20 20 19 19 20 21 22 22 23
14 14 15 15 16 17 19 20 19 17 17 18 16 16 16 15 17 20 19 17 17 14 11 10 9 7 4 5 7 8 7 5 4 5 8 9 9 10 12 12 13 14 14 14 15 14 14 12 10 11 12 12 12 12 13 13 12 12 13 14 15 14 12 10 9 10 11 13 13 14 16 16 17 18 20 20 21 20 20 20 21 22 23 24 24
14 13 13 14 15 15 16 18 18 17 18 19 16 15 15 15 17 20 19 16 13 11 9 8 6 4 5 7 8 8 6 4 4 7 9 8 9 10 11 12 13 14 14 14 13 14 14 13 13 13 13 12 11 10 10 11 12 13 14 13 11 9 7 7 9 10 11 13 13 15 16 17 18 19 20 20 20 20 20 20 21 22 23 23 23
11 11 10 11 12 13 14 15 16 17 18 18 17 15 14 15 16 18 18 15 13 10 9 7 5 6 7 8 7 6 5 5 7 8 6 4 6 9 10 12 13 14 14 15 15 17 18 16 14 14 13 10 9 8 9 10 8 8 7 5 5 6 7 8 9 11 12 13 14 16 17 18 19 19 19 18 19 20 21 21 21 21 21 21 22
11 10 9 9 11 12 13 13 14 15 15 14 14 15 15 15 16 17 17 15 12 11 10 9 9 8 7 6 6 6 7 9 10 9 6 4 5 6 7 8 9 9 10 11 11 13 15 14 12 11 10 8 7 7 8 7 4 2 2 2 4 7 8 8 9 11 12 13 15 16 18 18 17 16 16 18 19 19 19 20 20 20 21 21 22
12 10 9 9 9 10 12 12 12 13 13 12 11 11 13 14 15 14 13 12 12 11 11 11 11 9 8 8 9 10 12 11 9 9 8 6 6 6 5 6 6 6 7 8 6 6 7 7 8 10 10 8 7 6 5 4 4 4 5 6 7 8 8 9 11 10 11 12 15 16 17 16 15 15 16 17 18 17 17 18 18 20 20 20 20
11 10 9 9 9 9 10 11 11 10 10 12 11 8 6 8 11 11 11 10 11 11 11 10 10 10 10 11 12 11 11 10 10 11 10 9 10 10 8 7 7 6 8 9 8 7 7 8 10 11 11 10 9 8 7 6 6 7 7 7 8 9 9 10 11 11 12 13 14 14 14 14 14 15 16 17 17 16 16 17 17 18 18 18 19
10 9 9 9 10 11 11 11 11 9 10 12 10 7 6 6 7 10 10 11 11 12 11 11 11 11 10 12 13 10 7 8 11 11 11 10 11 10 9 9 9 8 8 9 8 9 10 12 13 12 11 10 9 8 6 6 7 7 7 7 7 9 10 11 12 12 11 11 12 12 12 13 14 15 15 16 16 16 16 16 16 16 17 17 19
9 9 8 8 9 11 12 12 11 10 9 10 10 9 9 8 7 7 8 10 11 12 12 12 13 14 11 11 13 11 8 9 10 9 8 8 8 7 6 6 8 10 8 7 7 9 12 13 13 11 9 8 7 6 6 6 7 7 8 8 8 9 10 11 11 9 10 11 12 12 12 13 14 15 15 15 16 16 16 16 15 15 16 16 18
9 9 8 9 9 8 8 10 10 9 9 9 9 10 10 9 7 6 7 9 11 12 12 12 14 16 14 12 13 13 11 10 9 8 8 8 6 5 5 4 5 7 7 7 8 11 12 11 10 7 6 7 6 5 6 7 7 8 9 10 10 11 12 11 9 8 10 11 11 11 12 13 13 14 14 15 15 15 15 15 15 15 16 16 17
10 9 10 12 11 8 8 9 9 10 10 9 9 10 10 9 9 9 9 9 10 12 13 13 13 15 14 12 11 12 11 10 9 8 8 7 6 6 5 5 5 5 6 7 9 10 9 8 7 5 5 6 6 5 6 8 8 8 9 10 11 12 11 8 8 9 10 10 10 11 12 12 12 13 14 14 14 14 15 15 15 15 15 16 17
11 11 13 14 13 11 11 11 11 11 11 10 11 12 11 10 10 11 11 10 10 10 12 13 13 13 13 12 11 10 10 10 9 8 8 7 7 6 5 4 4 5 6 8 10 9 7 6 7 6 5 6 6 6 6 7 8 9 10 10 11 10 8 7 7 8 9 10 11 11 10 11 12 13 13 13 14 14 14 14 14 15 15 16 17
11 11 13 13 12 12 12 11 11 11 12 11 10 10 9 9 10 11 11 12 11 11 11 12 14 13 12 12 11 10 10 10 9 8 8 7 7 6 6 5 6 7 8 8 8 7 6 6 6 5 5 5 5 6 7 8 9 9 9 9 8 8 7 7 8 8 9 10 10 10 10 11 11 11 12 13 14 14 14 14 14 15 16 16 17
9 11 12 12 10 10 10 10 10 10 10 9 8 7 8 9 10 11 12 12 13 13 12 12 13 13 12 11 10 10 10 9 8 8 8 7 7 7 7 7 7 6 7 6 6 6 6 6 5 3 4 5 6 6 7 8 8 8 7 7 7 7 7 7 7 7 9 10 9 9 9 10 10 11 12 13 13 14 14 15 15 15 16 16 17
7 8 9 9 8 8 8 8 9 10 10 10 9 9 10 11 11 10 10 10 11 12 12 13 13 12 10 10 10 9 9 8 8 8 8 7 8 7 7 7 4 3 5 5 5 6 6 5 4 3 4 6 7 7 8 8 8 7 6 5 6 6 7 7 7 7 8 9 8 8 9 10 10 11 12 12 13 14 14 15 15 16 16 17 17
4 4 6 8 7 6 7 8 10 11 11 10 10 11 11 10 9 9 9 9 9 9 10 11 11 10 9 9 9 9 9 9 8 8 8 8 8 8 7 5 4 4 4 3 4 6 5 3 4 5 6 6 7 7 8 8 7 6 5 6 6 6 7 8 7 6 7 8 8 8 9 10 10 11 12 13 13 13 14 15 16 16 16 17 16
4 4 6 8 7 6 7 9 10 11 10 9 9 10 10 9 8 8 8 8 8 8 8 9 9 8 8 10 10 9 9 9 8 8 8 8 8 7 6 4 4 5 4 3 5 6 5 4 5 6 6 7 7 7 7 7 6 5 6 6 6 6 6 6 6 5 6 7 7 8 9 10 10 11 12 12 12 14 14 15 15 16 16 17 17
5 5 7 8 7 7 8 9 10 9 9 9 9 9 9 8 8 7 7 7 7 7 7 8 8 7 8 10 10 10 9 8 7 7 7 7 7 6 5 5 5 4 4 5 5 6 6 6 6 6 7 8 7 7 6 6 6 6 6 6 6 6 5 5 5 5 6 6 7 8 9 9 10 11 12 12 13 14 14 14 15 15 16 16 17
4 6 8 9 9 8 8 8 8 8 8 7 7 7 7 7 6 5 5 6 6 6 7 7 6 7 9 10 11 10 8 6 5 6 6 6 7 6 5 6 6 5 5 6 6 6 7 7 6 7 8 8 7 7 6 5 6 6 6 5 6 5 5 5 4 5 6 7 7 8 9 9 11 12 12 13 13 13 14 14 14 15 16 16 16
4 6 9 10 10 10 9 8 8 8 7 7 7 6 5 5 4 4 5 6 6 6 6 6 5 7 8 10 11 11 9 6 5 6 6 6 6 5 5 6 6 6 6 6 5 5 7 8 7 8 9 8 7 7 6 5 6 6 5 5 5 4 4 4 4 4 6 7 7 8 9 10 11 11 12 13 13 13 13 14 14 15 16 16 16
6 7 9 10 9 8 8 8 8 7 7 7 6 5 5 4 5 5 5 6 6 5 6 6 6 7 7 8 9 10 9 7 5 6 7 6 6 5 6 6 6 6 6 6 5 5 7 8 8 9 9 8 7 6 6 5 6 5 5 5 4 4 4 4 4 4 6 6 7 8 9 10 11 11 11 12 13 13 13 14 14 15 15 15 15
7 8 9 9 8 7 7 7 7 7 7 7 7 5 4 4 5 5 5 6 6 6 6 6 6 7 8 7 8 9 9 7 7 7 7 6 6 6 5 5 4 3 4 5 5 6 7 8 8 8 8 7 6 5 5 5 5 5 5 4 3 3 3 4 4 4 6 7 7 8 9 9 10 11 11 12 13 13 13 13 14 14 15 15 15
8 9 9 8 8 7 7 7 7 7 7 6 6 6 5 5 5 6 6 6 6 5 5 6 6 6 7 8 8 9 8 7 7 7 6 6 5 5 4 3 3 3 3 3 4 5 6 7 6 6 7 6 5 5 5 4 4 4 4 3 3 3 3 3 4 5 6 6 8 8 9 10 10 10 11 12 13 13 13 13 13 14 14 15 15
8 8 7 8 8 8 7 7 7 7 6 6 6 6 6 6 6 6 6 6 6 6 6 7 7 7 7 7 8 9 8 8 7 7 6 6 5 5 4 4 4 3 3 3 4 5 5 6 6 6 6 5 4 4 4 3 3 3 3 3 3 3 3 3 4 5 5 6 7 8 9 10 10 10 11 12 12 12 13 13 13 13 14 14 14
8 7 7 8 8 8 8 7 7 6 6 5 6 6 6 6 6 7 6 6 5 6 7 7 6 6 6 6 7 7 8 8 7 7 7 7 6 5 5 5 4 4 4 4 5 5 6 6 6 5 5 5 4 4 4 3 3 3 3 2 2 3 4 4 4 5 6 7 7 8 9 10 10 10 11 11 12 12 12 13 12 13 13 13 14
7 8 9 8 8 8 8 7 7 7 7 7 8 8 8 8 8 8 8 7 6 5 5 5 5 5 5 5 6 6 7 7 8 8 8 8 8 7 6 6 6 5 5 5 6 6 7 7 6 6 5 5 4 4 4 3 3 2 2 2 3 5 7 7 5 5 6 7 7 9 9 9 10 10 10 11 11 12 12 12 12 13 13 12 13
7 8 8 8 7 7 7 7 7 8 7 8 8 8 8 8 8 7 6 6 5 5 4 4 5 5 5 5 6 7 7 8 9 9 9 9 9 9 8 8 8 7 6 6 7 8 8 8 7 6 6 5 5 5 5 4 3 3 2 2 3 4 4 4 5 6 7 7 8 9 9 9 9 10 10 10 10 11 11 11 12 12 12 12 12
7 7 8 7 7 7 7 7 8 7 7 8 8 8 7 7 6 6 5 5 4 4 4 5 5 6 7 7 8 9 9 10 11 11 11 11 11 11 11 11 10 9 8 8 8 9 9 9 8 8 7 6 6 6 6 5 4 4 4 4 3 3 4 4 5 6 7 7 8 9 9 9 9 9 9 9 10 10 10 11 12 12 12 11 11
7 8 8 8 8 8 9 9 9 9 9 8 8 7 7 7 6 6 5 5 5 5 5 6 6 7 8 8 9 10 11 11 12 13 13 13 13 12 13 13 12 11 10 9 9 9 9 9 9 9 8 7 7 7 6 5 6 7 6 4 2 3 5 6 7 7 7 7 7 8 9 9 8 8 8 8 9 9 10 10 11 11 10 10 11
Wind_Direction
196 196 195 196 195 192 193 195 195 192 191 199 202 199 202 207 208 207 203 203 203 201 204 208 209 212 215 218 218 216 215 215 214 213 215 218 219 222 222 223 232 240 245 251 254 257 261 264 265 264 261 259 259 259 259 260 263 265 267 270 271 269 268 272 277 282 284 285 287 289 291 292 291 289 290 291 291 289 286 286 288 287 284 281 279
195 192 190 190 190 191 193 191 189 187 188 199 203 200 206 214 215 209 201 202 206 203 201 206 210 211 212 214 215 215 215 217 216 214 216 219 221 225 227 229 236 243 248 253 255 257 259 260 263 265 264 260 257 258 261 263 265 265 265 268 271 272 269 272 276 280 283 284 284 286 289 291 292 293 295 295 295 294 291 289 288 286 284 284 282
192 186 185 188 191 194 192 186 183 185 192 204 206 202 207 215 217 214 208 206 211 211 204 204 210 211 210 211 211 212 216 217 217 217 219 222 225 229 233 235 240 246 251 255 258 260 261 261 263 265 266 263 258 256 259 262 261 261 264 268 271 273 271 270 272 277 282 284 282 282 287 290 291 295 297 295 295 294 290 289 289 288 287 286 285
187 182 185 190 193 195 190 181 183 187 194 204 206 203 205 210 214 219 216 209 211 215 211 207 209 209 208 210 210 212 216 218 219 220 221 225 230 234 238 240 245 251 255 259 261 262 263 262 263 263 264 264 260 257 256 257 256 255 260 264 265 268 270 268 267 271 278 283 282 283 286 288 289 292 294 294 294 290 286 287 289 289 288 288 286
185 185 190 191 192 195 190 182 184 188 192 200 204 200 198 203 215 223 221 213 212 220 221 217 214 214 215 214 212 213 217 219 221 222 225 229 233 238 242 246 250 253 257 261 263 263 262 261 262 261 260 261 260 258 255 253 254 254 256 259 263 267 269 268 268 269 274 280 284 287 288 288 287 287 290 293 293 290 286 287 289 289 288 288 287
188 189 192 190 190 193 189 179 181 189 196 202 201 195 195 205 217 223 221 215 214 217 221 223 222 223 224 220 214 215 219 221 223 224 228 232 236 241 246 249 253 256 260 262 262 262 260 259 258 256 255 257 258 257 255 252 252 254 256 259 264 268 269 270 271 271 272 277 282 286 289 289 288 287 287 288 290 291 290 289 289 287 286 288 288
189 188 191 192 192 190 181 177 186 197 204 207 202 197 202 209 215 219 218 214 212 213 215 221 225 226 227 224 220 218 218 222 225 227 230 235 240 244 248 252 255 258 259 260 261 261 259 255 253 250 248 251 254 255 256 254 252 253 255 260 265 269 272 274 276 274 275 278 280 283 286 286 286 285 285 286 286 285 285 287 291 290 288 287 287
189 189 191 195 196 189 180 187 202 208 208 209 207 205 208 211 212 217 216 212 212 213 212 215 220 222 223 224 224 221 220 223 227 229 234 238 241 245 250 254 256 257 257 257 258 259 257 253 251 248 247 248 249 251 253 253 254 255 259 264 269 273 276 279 282 281 280 281 282 283 284 284 283 283 284 286 286 285 287 292 293 291 288 286 284
188 190 189 189 195 192 186 196 208 211 208 209 211 210 210 211 212 213 212 210 211 212 209 210 213 216 220 225 228 227 224 226 229 231 233 236 241 248 252 253 254 254 254 255 255 256 254 253 252 250 248 245 246 250 254 255 257 260 264 269 272 276 278 280 284 287 286 285 284 285 285 284 283 284 286 288 289 291 294 294 290 288 290 289 286
188 189 186 184 192 197 194 197 206 210 211 212 213 212 211 211 210 210 209 208 208 209 207 205 206 212 219 225 230 231 228 229 233 233 233 236 243 251 254 253 253 252 253 255 257 257 254 253 254 252 248 247 250 256 260 260 259 261 265 269 271 273 275 276 280 285 286 287 288 289 288 286 286 288 289 290 292 293 294 293 291 293 295 293 289
188 189 184 184 193 197 196 197 204 209 213 214 214 213 212 210 208 208 207 204 205 209 209 206 207 211 215 220 227 231 232 233 234 237 240 244 249 253 255 254 253 252 253 255 256 259 258 257 257 256 252 252 255 259 261 262 263 265 268 270 270 267 265 268 275 282 285 287 289 289 288 286 287 288 289 291 292 293 294 294 294 295 295 294 292
183 185 185 188 196 196 193 198 205 208 212 215 214 212 210 207 206 205 204 203 203 206 208 210 213 213 212 215 220 226 232 235 237 241 245 246 249 252 252 252 255 255 254 256 258 260 261 260 261 261 256 253 254 257 262 265 269 273 274 274 273 266 258 258 265 274 281 286 288 286 285 286 287 287 288 291 295 295 295 293 293 293 293 291 291
182 186 191 194 198 196 194 201 208 210 213 215 213 210 208 205 204 201 200 201 202 204 209 214 219 219 217 218 218 220 228 234 239 246 248 245 246 249 248 248 252 255 255 259 261 260 262 262 263 263 260 256 255 257 260 261 265 271 274 276 277 271 263 260 262 267 273 276 278 279 280 283 285 286 287 291 294 294 293 292 292 293 292 290 291
184 191 196 197 196 195 196 204 210 213 214 213 210 209 208 206 203 201 200 198 197 203 209 213 219 223 223 222 220 221 227 233 241 251 253 246 244 248 249 246 248 254 257 259 260 261 263 263 262 264 264 261 258 257 257 256 258 262 264 267 270 270 267 264 265 270 270 267 267 271 276 279 281 282 284 287 290 292 292 293 294 294 292 290 290
185 193 195 193 193 196 200 206 211 215 215 213 209 209 210 209 202 198 197 193 193 200 203 205 215 223 221 217 218 222 228 235 245 256 259 250 246 249 250 246 247 254 256 257 259 261 262 262 264 267 267 264 260 257 254 254 258 258 257 258 260 260 261 261 263 267 266 263 264 269 272 273 274 276 279 284 288 291 292 291 290 289 287 286 284
185 192 191 187 191 199 204 207 212 216 215 214 213 211 214 213 201 191 191 191 192 198 199 203 215 221 215 212 218 227 234 239 249 261 264 255 250 251 249 246 248 253 256 259 262 262 263 263 262 263 267 269 264 259 257 257 257 257 256 255 255 260 265 266 267 266 265 269 274 274 271 269 267 269 275 280 284 288 290 289 284 280 279 281 281
184 188 187 186 193 202 206 209 213 216 215 216 216 216 218 215 202 192 193 195 195 196 198 205 214 214 211 214 223 235 243 244 251 263 266 258 252 250 246 244 246 251 257 263 265 263 262 257 252 257 266 267 262 261 266 266 260 255 255 254 252 259 265 268 271 273 273 279 286 285 280 278 275 275 277 279 281 283 281 279 278 276 277 281 282
182 183 185 188 195 203 207 211 214 216 217 218 218 216 217 213 203 192 191 193 195 192 194 208 214 207 208 221 232 243 251 251 253 262 265 260 254 248 242 242 247 251 259 264 265 266 263 257 258 264 266 262 260 265 269 266 258 253 255 257 258 261 266 269 271 275 278 282 288 290 288 288 289 289 285 283 286 284 270 265 271 276 280 285 289
183 184 185 188 196 205 208 211 215 217 220 220 218 215 212 207 200 191 188 193 197 192 196 209 213 204 206 224 238 249 259 264 264 264 264 264 257 245 237 243 251 256 263 266 265 266 264 261 266 271 269 265 266 269 268 261 254 252 255 259 263 265 268 272 274 277 278 279 284 288 287 287 289 288 285 284 289 284 268 259 265 273 281 287 290
183 183 184 190 198 204 207 211 216 220 222 221 218 213 207 199 195 193 192 197 201 200 201 205 202 187 189 229 262 270 274 277 272 265 262 264 259 242 233 243 255 262 267 268 267 266 263 261 265 270 273 275 273 269 264 258 254 256 259 262 265 266 269 277 281 281 280 282 286 287 285 284 284 282 280 280 282 279 270 264 269 277 284 288 288
178 180 185 194 200 203 206 211 216 221 223 220 214 207 200 194 195 199 199 198 198 197 198 198 190 177 194 259 287 288 282 276 271 266 263 264 259 242 233 243 259 267 270 269 269 269 267 264 264 265 269 276 275 266 261 258 255 256 256 257 259 263 269 278 283 281 280 281 282 282 283 284 283 282 281 281 281 281 280 279 282 284 285 287 289
174 178 186 194 199 203 208 211 215 221 221 215 207 197 187 191 203 208 208 204 200 195 191 186 173 165 206 258 276 276 268 262 262 262 262 264 265 257 250 251 256 264 272 275 273 274 274 273 272 265 260 265 271 264 258 258 257 255 254 255 260 264 269 275 280 279 278 277 277 280 283 285 286 286 286 287 288 289 289 289 288 287 284 284 285
170 176 185 191 195 202 208 211 215 218 215 208 202 192 184 193 207 210 208 203 198 191 178 162 153 154 189 251 259 251 248 248 248 254 262 268 272 268 263 256 250 251 261 270 273 276 278 277 272 261 256 264 271 264 256 255 254 254 256 260 266 272 276 278 276 270 271 272 274 278 283 285 289 291 292 293 294 293 292 290 288 287 285 283 282
166 175 184 188 194 201 205 210 215 214 209 205 197 187 188 198 205 206 204 197 189 181 164 151 153 162 188 229 237 229 224 225 243 265 267 265 262 260 259 254 247 244 248 258 269 278 282 280 267 257 261 270 269 257 248 247 248 253 260 265 271 277 279 273 263 260 264 267 271 277 284 288 292 293 294 295 295 292 289 287 287 286 285 284 284
166 175 181 187 196 199 201 208 214 213 212 208 192 181 190 200 201 201 199 190 179 168 149 139 146 176 204 216 213 201 189 191 236 256 258 254 247 245 245 242 241 242 243 247 256 263 268 272 269 266 269 269 261 251 247 250 253 256 262 268 269 269 267 260 257 260 264 270 279 286 289 291 292 292 294 294 291 289 288 288 289 289 288 288 288
162 169 173 182 193 198 201 205 208 211 215 210 195 188 196 199 195 196 194 184 169 152 140 147 183 210 215 211 196 174 167 185 210 225 237 255 253 248 249 246 243 245 247 248 249 252 256 261 265 265 263 254 243 242 246 251 259 263 266 268 251 241 246 254 264 274 279 283 288 290 291 293 293 293 293 291 288 289 292 293 294 294 294 296 295
153 157 164 173 186 199 205 202 200 205 206 199 191 191 193 190 188 190 191 181 164 152 158 182 203 211 210 200 184 178 188 197 202 203 199 205 228 242 263 263 251 252 258 256 252 250 252 256 256 249 245 243 239 235 234 239 248 246 246 254 249 250 258 264 271 280 285 286 289 291 292 294 293 291 290 290 290 292 294 296 297 298 300 301 298
145 148 157 168 181 199 202 193 194 199 191 181 186 190 188 192 194 191 184 172 161 166 182 196 202 202 197 189 185 193 200 199 196 195 193 196 205 216 246 262 255 260 260 247 235 231 236 248 247 230 225 235 239 221 207 211 226 238 247 252 252 256 268 275 274 273 274 280 287 291 293 292 290 290 292 292 293 295 297 298 298 299 301 300 297
137 138 151 167 178 191 192 186 190 188 167 163 179 188 181 191 193 181 167 163 169 184 198 201 196 191 187 187 192 200 202 193 189 195 200 204 206 207 218 231 234 245 247 237 233 236 236 240 240 230 227 233 233 218 200 204 231 248 249 252 263 269 270 274 279 280 280 284 286 288 290 291 291 294 295 295 297 299 301 301 300 298 299 298 298
132 143 163 176 180 185 185 178 175 167 147 146 156 146 114 124 150 158 166 178 191 201 203 196 185 178 180 190 199 202 189 176 187 199 202 200 202 203 210 218 218 222 229 227 229 239 244 245 246 244 242 242 239 232 222 224 243 253 238 232 261 281 280 279 285 288 288 287 285 286 290 292 294 296 297 299 301 303 303 302 299 299 299 300 303
151 168 174 165 163 173 174 165 158 153 145 146 150 142 129 127 135 155 176 187 194 196 193 189 186 183 183 192 201 204 191 179 187 192 184 181 191 201 213 222 219 216 216 215 225 241 249 252 255 256 253 251 251 250 251 250 256 264 260 256 268 282 284 284 288 291 292 290 287 289 293 294 296 299 300 302 304 304 305 305 303 303 303 303 306
170 171 153 130 128 140 151 152 151 148 146 151 152 142 137 140 143 152 171 182 185 184 184 187 190 190 191 194 195 194 188 179 175 171 168 175 187 199 212 215 207 203 200 206 231 248 253 257 263 264 261 266 267 261 264 268 265 266 273 278 283 286 287 290 295 295 292 290 291 295 297 296 298 300 300 302 304 305 307 309 309 310 309 307 309
160 153 144 142 142 142 144 152 157 152 148 154 152 146 150 158 153 145 153 168 174 174 178 182 184 187 190 187 179 176 173 166 161 161 168 176 180 186 192 188 186 198 206 218 238 252 256 261 269 265 257 266 267 254 258 270 272 273 277 280 286 289 289 290 291 286 284 287 291 295 297 298 301 301 301 303 306 308 311 312 313 314 314 312 313
155 152 151 152 154 155 155 158 159 154 153 160 163 162 164 164 154 146 146 151 154 159 168 172 173 175 175 169 163 165 163 157 156 161 166 171 176 178 174 174 189 208 220 235 252 261 259 258 265 264 259 265 265 261 263 265 267 274 279 281 285 287 284 280 280 282 289 296 296 296 300 303 303 302 304 307 310 311 313 314 316 319 318 315 317
156 151 149 149 150 153 153 154 156 156 158 162 166 165 161 155 153 155 154 152 152 154 158 165 168 167 162 159 161 165 160 155 157 160 160 164 168 163 163 185 202 200 200 222 250 263 261 258 260 256 255 262 265 266 268 265 267 276 281 282 285 284 281 281 284 289 299 301 298 300 304 302 301 303 306 309 311 313 315 317 320 321 319 317 318
151 148 151 154 155 154 153 156 160 160 160 159 158 159 163 165 166 167 165 162 160 157 154 157 161 160 156 158 164 163 157 155 153 151 154 160 157 159 184 213 216 198 198 218 243 255 258 262 262 248 246 259 263 262 263 268 275 279 281 285 289 286 284 288 294 300 301 297 296 301 302 300 303 308 309 311 313 314 316 319 320 320 320 318 317
147 149 159 166 165 157 152 154 157 156 157 160 160 162 170 174 171 168 169 167 161 157 153 152 153 154 155 162 166 163 157 153 148 148 153 154 150 168 213 246 255 235 229 238 249 252 250 252 255 250 247 252 257 263 270 276 276 272 271 277 281 282 287 293 295 296 296 294 296 301 302 302 308 310 311 313 315 315 318 321 320 320 320 318 315
139 145 161 169 173 170 156 146 148 153 158 163 165 165 166 167 164 164 166 166 166 168 165 161 164 168 166 166 169 167 158 151 148 151 156 158 166 192 224 245 250 248 246 234 241 252 252 241 244 254 257 259 263 268 273 275 271 270 275 276 268 269 281 287 282 278 284 292 298 304 305 307 311 313 314 314 314 316 320 321 320 322 322 321 320
150 165 168 162 161 164 155 146 148 155 160 161 161 161 161 162 165 168 169 173 183 188 179 177 188 189 167 158 166 173 170 166 166 167 171 181 198 218 232 230 231 251 264 249 239 248 252 245 248 256 261 265 266 267 269 272 271 269 274 275 269 267 276 282 279 279 288 299 306 309 311 312 314 315 315 314 316 321 321 319 320 323 323 322 324
142 164 173 169 162 155 151 151 153 156 157 156 156 158 160 161 166 172 171 175 188 191 184 190 204 198 173 166 174 180 184 191 192 186 189 202 213 224 237 240 239 244 251 249 249 252 253 248 246 252 256 259 261 263 265 269 270 263 260 265 269 271 275 279 283 290 299 306 310 311 313 316 317 317 317 318 319 320 318 317 322 325 322 323 325
139 149 159 165 162 154 153 158 157 152 151 152 153 154 154 153 160 174 179 182 187 191 197 206 202 181 176 183 186 188 199 212 201 195 209 221 220 221 233 245 250 249 244 243 245 250 258 258 251 250 254 257 259 262 261 260 263 260 255 258 265 270 273 273 278 294 304 307 310 314 317 319 319 317 317 318 319 318 318 321 325 326 326 327 328
176 158 157 162 164 163 162 157 145 139 141 144 146 147 147 152 171 187 191 193 194 194 199 200 168 150 171 194 197 199 215 225 197 194 216 226 223 228 237 243 251 257 259 257 249 244 255 262 257 254 258 258 257 261 261 257 258 259 257 259 263 266 273 277 282 297 304 305 311 317 318 316 316 315 315 318 320 321 324 327 328 328 330 331 330
181 164 159 161 163 162 156 146 141 144 146 142 140 145 152 166 184 192 192 196 198 193 192 187 161 150 172 199 199 199 211 217 199 201 220 225 222 231 240 243 252 260 263 266 260 245 248 256 256 255 258 257 256 261 265 261 261 261 259 260 261 262 275 288 294 302 307 310 316 318 316 315 316 317 319 322 325 325 326 328 331 332 333 333 334
164 154 153 152 147 142 142 143 142 138 131 124 125 138 160 175 183 190 192 191 190 190 188 182 170 162 166 178 188 195 204 208 202 206 219 225 230 240 245 244 249 253 249 250 245 238 245 254 254 251 252 250 250 258 263 262 262 261 258 259 260 262 274 289 301 310 314 317 317 317 317 318 318 319 324 326 326 326 328 331 333 335 335 335 337
148 147 149 148 143 142 146 148 142 135 137 139 137 145 171 186 181 184 192 186 181 187 187 177 174 174 170 171 184 197 206 209 209 214 223 228 229 232 225 198 186 205 224 228 225 228 239 245 240 233 234 238 244 253 257 254 251 251 256 261 263 269 283 298 305 310 313 316 317 317 318 320 320 321 326 328 325 326 330 332 333 335 336 337 339
137 140 148 151 153 157 156 154 153 156 166 171 162 162 180 188 177 176 185 181 176 185 188 179 179 189 189 184 188 198 210 218 221 223 226 225 218 208 194 175 171 187 200 203 206 214 222 225 222 219 223 231 240 245 244 242 240 243 251 257 264 282 299 301 302 308 309 311 316 316 316 318 319 319 322 324 324 326 330 331 332 336 336 336 339
136 150 164 163 163 167 163 160 167 174 173 171 170 170 173 174 171 171 174 175 181 193 195 189 189 199 206 206 204 207 216 226 231 227 223 221 219 210 194 179 178 185 188 191 200 205 207 210 214 216 219 225 231 228 225 226 229 234 244 252 260 271 270 267 289 316 314 307 311 314 311 313 316 318 321 324 325 327 330 331 333 336 336 335 340
153 164 169 165 164 168 164 160 172 179 173 168 171 171 167 168 174 176 172 171 183 195 199 201 208 215 221 225 226 226 227 230 234 233 228 227 230 223 204 188 188 194 191 190 195 198 198 200 205 209 212 217 220 217 213 216 219 221 232 249 252 255 257 257 270 292 292 292 304 308 305 307 311 315 319 322 322 325 331 332 335 338 335 335 341
166 164 161 161 165 168 164 166 177 181 174 168 173 176 173 174 180 182 179 181 190 201 210 220 226 233 238 237 236 239 240 236 235 237 237 237 237 230 214 198 194 196 197 194 193 194 197 198 201 206 211 212 214 211 207 211 213 202 197 231 256 276 287 281 274 272 272 284 301 303 300 305 311 312 315 318 317 322 332 335 335 336 335 334 342
167 164 162 164 169 169 170 177 181 178 173 175 178 178 177 181 184 186 189 197 204 212 227 239 244 248 251 248 245 246 248 246 243 243 242 241 238 231 222 209 198 194 200 201 195 194 197 199 199 204 208 208 210 212 209 205 202 191 194 219 262 343 1 339 310 290 275 277 291 298 298 304 309 311 315 320 320 324 333 336 333 334 336 338 343
164 164 165 168 172 174 177 181 179 173 174 182 184 178 181 192 198 195 200 216 230 236 245 256 261 261 261 260 257 254 254 253 252 250 248 244 237 230 226 220 206 196 198 201 197 195 199 200 200 203 207 206 209 213 209 201 202 206 212 227 281 358 1 348 333 313 281 265 274 289 295 299 305 309 314 323 327 327 330 333 333 333 336 342 346
Height
766 769 772 776 779 782 785 787 790 793 795 798 800 802 803 804 806 809 810 812 814 816 818 819 821 822 824 825 827 828 829 830 831 831 832 833 833 833 833 834 834 834 834 834 834 834 834 834 834 834 834 834 834 834 835 835 836 836 836 836 836 836 836 835 833 831 830 830 829 828 828 828 826 826 825 824 823 823 822 821 820 819 817 816 815
762 766 769 773 775 777 779 782 785 789 791 794 796 797 799 800 802 804 806 808 810 812 814 816 818 819 821 823 825 826 828 829 830 830 831 831 832 832 832 832 833 833 833 833 833 833 833 833 832 832 832 832 832 832 832 833 833 833 833 833 833 833 833 833 832 829 827 827 827 826 826 825 824 823 823 822 821 820 820 819 818 817 815 814 813
758 763 766 768 769 771 773 777 781 785 787 789 791 794 796 798 799 800 802 804 805 808 810 812 815 816 818 820 822 824 825 826 827 828 829 830 830 830 830 830 831 831 831 831 831 831 831 831 830 830 830 830 830 830 830 830 830 830 830 831 831 831 831 831 830 828 826 825 825 824 823 823 822 821 821 820 819 818 817 816 815 814 813 812 810
756 759 761 762 762 765 770 774 779 782 783 785 788 792 795 797 798 799 801 802 803 805 807 808 811 814 815 817 819 821 823 824 825 826 827 828 828 828 828 828 829 829 829 829 829 829 829 829 828 828 829 828 828 828 828 828 828 828 828 828 829 828 828 828 828 827 825 823 822 822 822 821 820 820 819 818 817 816 815 814 813 812 811 809 808
751 753 754 756 757 762 768 772 775 779 780 781 784 788 792 795 797 798 799 799 801 803 805 806 808 810 812 814 816 818 820 822 823 823 825 825 826 826 826 826 827 827 827 827 827 827 827 826 826 826 826 826 826 826 826 826 825 825 825 825 826 826 826 826 826 825 824 822 820 819 819 819 818 817 817 816 814 813 812 811 810 809 808 807 805
746 747 750 752 754 759 764 768 772 774 774 775 778 782 784 785 787 789 791 794 795 796 799 802 805 807 809 811 813 815 817 819 820 821 822 823 823 824 824 824 824 824 825 825 825 825 824 824 824 824 824 824 824 824 823 823 823 823 823 823 823 824 824 823 823 823 822 820 818 817 816 816 815 814 814 813 812 811 809 808 807 806 805 804 803
741 743 746 749 753 757 761 765 766 766 766 768 773 776 777 778 780 782 785 789 791 792 794 798 801 804 807 809 811 813 814 816 818 818 820 821 821 821 821 821 822 822 822 822 822 822 821 821 821 821 822 822 822 821 821 821 820 820 820 821 821 821 821 821 820 820 819 818 816 815 814 813 812 811 811 811 810 809 807 806 804 803 803 801 800
738 741 744 748 753 757 759 760 759 758 761 764 767 770 772 775 776 778 782 786 789 789 790 794 797 800 803 806 808 810 812 813 814 816 817 818 819 819 819 819 819 819 819 819 819 819 818 818 818 818 819 819 819 819 819 818 818 818 818 819 819 819 819 819 818 817 816 815 814 813 812 811 809 808 808 808 807 806 805 804 802 800 800 798 797
736 739 742 746 751 755 755 755 754 756 759 760 762 765 767 770 772 774 777 781 784 786 787 791 794 796 799 802 804 806 808 810 811 813 814 815 816 817 817 817 817 817 817 817 817 816 816 815 815 815 815 816 816 816 816 816 816 816 816 816 817 817 816 816 816 815 814 813 811 810 809 808 807 806 805 805 804 803 802 802 800 798 797 795 793
733 737 740 743 748 751 752 752 753 755 756 756 759 761 764 767 769 770 773 776 780 783 786 789 792 793 795 798 801 803 805 806 807 809 811 813 814 815 814 815 815 815 815 815 814 814 813 812 812 812 813 813 813 813 813 813 814 814 814 814 814 814 813 813 813 812 811 810 809 808 806 805 804 803 802 801 801 800 799 799 797 795 794 791 789
731 734 736 740 745 748 748 749 750 751 752 754 756 758 761 764 766 767 769 773 777 780 784 787 790 791 792 795 797 799 801 803 804 806 808 810 812 812 812 812 812 812 812 812 812 811 811 810 810 810 810 810 810 810 810 810 811 811 811 810 810 810 810 810 809 809 809 808 806 806 804 802 801 801 800 799 798 797 796 796 795 793 792 789 786
728 731 734 738 742 744 745 746 747 748 749 751 753 756 759 761 763 765 767 770 774 777 780 784 787 789 790 791 794 795 797 799 801 803 805 807 809 809 810 810 810 809 810 809 809 809 808 808 808 808 808 808 807 807 807 807 807 807 807 807 807 807 807 807 807 807 806 805 804 803 802 800 799 799 798 796 796 795 794 793 793 791 790 787 784
725 728 732 736 738 739 741 742 744 746 746 748 751 754 756 757 760 763 764 767 770 772 775 778 782 786 787 788 791 792 795 796 798 799 801 803 805 806 806 807 807 806 807 806 806 806 806 806 805 805 805 805 805 805 804 804 804 803 803 803 803 803 803 804 804 804 804 803 802 801 800 799 797 796 795 795 794 793 792 791 790 789 787 785 782
722 726 729 733 734 736 738 739 741 743 744 746 749 750 752 755 757 759 762 764 766 769 772 775 779 782 784 786 788 789 792 793 794 796 798 799 801 802 803 803 803 803 804 803 803 803 803 803 802 802 801 802 802 801 801 801 801 801 800 800 799 799 800 799 800 800 800 800 799 798 797 797 795 793 793 793 792 791 790 789 788 786 784 782 780
720 724 727 730 732 733 735 737 739 740 743 745 746 747 750 753 755 757 760 762 765 769 771 774 778 780 781 783 785 787 788 790 791 793 794 795 797 799 799 800 800 800 800 800 800 800 800 800 799 799 799 799 799 798 798 799 799 799 798 797 797 797 796 796 796 796 797 797 797 796 795 794 793 791 790 790 789 789 788 787 785 784 782 779 777
718 722 725 726 729 731 733 735 737 739 741 743 743 745 749 752 753 755 759 761 765 769 771 773 777 779 780 781 783 784 786 787 788 789 791 792 794 795 796 797 797 797 797 797 798 797 797 797 796 796 796 796 796 795 795 796 796 796 795 794 794 794 794 793 792 792 793 793 793 793 791 790 789 788 787 787 787 786 786 784 783 781 779 776 772
716 719 721 723 726 729 731 733 735 737 739 740 742 744 747 750 751 753 756 760 763 767 770 772 776 777 777 780 781 783 784 784 785 786 788 789 791 792 792 793 794 794 794 795 795 794 794 794 793 793 792 792 793 792 792 793 793 793 792 791 791 791 790 790 789 788 789 789 789 789 788 787 787 785 785 784 784 784 784 782 780 777 774 771 767
714 716 719 721 724 727 729 731 733 735 737 738 740 742 744 748 749 750 754 759 762 765 768 772 774 774 775 779 780 781 782 782 782 784 785 786 788 788 790 791 791 791 791 792 791 791 791 790 790 789 789 789 789 790 789 790 790 790 789 789 788 787 787 787 786 786 786 786 786 785 784 784 783 782 781 781 781 781 780 778 776 773 770 767 763
712 714 717 719 722 725 727 729 731 733 735 736 738 740 743 746 748 749 752 756 760 763 766 770 772 772 774 777 779 780 780 779 780 781 782 783 784 786 787 788 788 788 788 788 788 788 788 787 786 786 786 786 786 786 786 787 787 787 787 786 786 785 785 785 785 784 784 784 783 783 782 781 780 779 778 777 777 777 776 774 773 771 768 764 761
711 713 716 718 721 723 725 727 729 731 733 735 736 739 742 744 746 748 751 754 757 761 764 768 769 769 771 775 777 778 777 777 778 779 779 780 782 783 785 785 785 786 785 785 785 785 785 785 784 783 783 783 784 783 783 784 784 785 785 784 784 783 783 784 783 783 783 782 782 781 780 779 778 777 776 775 774 773 771 770 769 767 765 761 758
710 713 716 717 720 722 723 726 728 729 731 733 736 738 740 741 744 747 750 752 755 758 762 765 765 765 768 771 774 775 775 775 776 777 777 779 780 781 783 783 783 783 783 783 783 782 782 782 782 781 781 782 782 781 781 782 782 782 782 782 782 781 782 782 782 781 781 780 780 779 778 776 775 774 773 772 771 770 768 767 766 764 762 759 755
709 712 714 716 719 721 723 725 726 728 730 732 735 737 737 740 743 745 748 750 752 755 758 760 761 761 764 768 771 773 773 774 774 775 776 777 778 779 780 781 782 782 782 782 781 780 780 780 780 780 780 780 780 779 779 780 779 780 780 780 780 780 780 780 780 779 779 778 778 777 775 774 773 771 770 769 767 766 766 765 764 762 759 757 754
707 710 712 714 717 720 722 724 726 727 729 731 733 734 735 738 741 743 745 747 749 751 753 755 757 760 763 766 769 770 771 772 773 773 774 775 776 777 778 779 780 780 781 781 780 779 779 779 778 778 778 778 778 778 778 777 777 778 778 778 778 777 777 778 778 777 777 776 776 775 773 772 771 769 768 767 765 764 764 763 761 759 756 753 751
705 708 710 712 714 717 720 723 724 726 728 730 731 731 733 736 738 740 743 745 747 749 751 753 756 758 761 764 766 767 768 770 771 772 772 773 774 775 776 777 777 778 779 779 779 779 778 777 777 776 777 777 777 776 776 776 776 776 776 775 775 775 775 776 776 775 775 774 773 772 771 770 769 768 767 765 764 764 763 760 758 755 752 749 747
703 706 709 711 713 716 719 721 723 724 727 729 729 729 732 734 736 738 741 743 745 747 749 751 754 757 760 762 763 764 765 768 770 771 771 772 772 773 775 775 775 776 776 777 777 777 776 776 775 775 775 775 775 775 775 774 774 774 773 773 773 774 774 774 774 773 773 772 771 770 769 768 767 766 765 764 763 762 760 757 754 751 748 745 743
704 706 709 712 715 717 719 720 722 723 725 726 727 727 729 731 733 736 738 741 742 744 746 750 753 756 758 759 760 761 763 766 769 770 770 771 772 773 773 773 774 774 774 774 775 774 774 774 774 774 774 774 774 774 774 773 772 772 772 772 772 773 773 773 772 772 771 770 769 768 767 766 765 765 764 763 761 759 757 754 750 747 745 742 739
705 707 709 712 715 718 719 720 721 722 724 725 726 726 728 729 731 733 736 737 739 741 745 748 752 754 756 757 758 761 763 766 767 767 768 769 770 771 772 772 773 773 772 772 772 772 773 772 772 772 772 772 772 772 772 772 772 771 771 771 771 772 772 771 771 771 770 769 768 767 766 765 764 763 762 760 758 756 754 751 748 745 742 740 737
704 705 708 711 714 717 719 720 721 722 723 724 726 727 728 730 732 733 734 735 737 741 745 747 750 752 754 756 758 760 762 763 763 763 765 766 768 770 771 771 772 771 771 771 771 771 772 771 771 771 771 770 770 770 771 771 771 771 771 771 770 770 771 770 770 770 769 768 767 766 765 764 763 761 759 757 755 753 751 749 746 743 741 738 734
702 705 708 711 714 717 719 720 720 721 722 724 726 728 729 730 731 733 734 735 738 742 744 746 748 751 753 755 757 758 758 758 758 760 762 764 766 767 768 769 769 769 769 769 770 770 770 770 769 768 768 768 767 767 768 769 770 770 770 770 769 769 769 769 768 768 767 767 766 765 764 762 761 759 757 755 753 751 749 747 745 742 739 736 732
702 705 709 711 714 716 718 719 719 721 723 724 727 729 730 731 732 732 734 736 739 742 743 745 747 749 751 753 754 755 755 755 756 759 761 763 765 765 766 766 766 766 767 767 768 768 768 767 766 765 765 765 765 765 766 767 768 768 768 768 768 768 767 768 767 766 766 766 765 763 762 760 759 757 755 753 751 749 747 745 743 740 737 733 729
703 706 708 711 713 715 717 718 719 721 723 725 727 728 729 731 733 734 735 737 739 742 744 746 748 749 750 751 752 753 754 754 756 758 760 762 763 763 763 764 764 765 765 766 767 766 765 764 763 762 762 763 763 764 765 765 766 767 766 766 766 766 766 767 766 766 765 764 763 761 760 759 757 755 753 752 749 747 745 743 740 738 735 731 728
705 706 708 711 713 715 717 718 720 722 724 726 728 728 730 732 734 735 736 738 740 742 744 746 748 749 750 751 752 753 754 754 756 757 759 760 761 761 761 762 763 763 764 765 765 764 763 762 761 761 761 762 762 763 764 764 764 765 765 765 765 764 765 765 765 765 765 763 761 760 758 757 756 754 752 750 748 745 743 740 738 736 733 730 727
706 707 709 712 714 716 718 719 721 723 724 726 727 728 731 734 736 736 738 740 741 742 744 746 748 750 751 751 752 753 753 754 755 756 758 758 759 760 760 761 762 763 764 764 763 762 761 760 760 760 760 761 761 762 763 764 764 764 765 765 764 764 764 764 765 764 763 761 760 759 757 756 754 752 750 748 746 744 741 739 737 734 731 728 725
708 709 710 712 714 716 717 719 721 722 723 726 727 728 730 733 734 735 737 739 741 743 744 746 748 750 751 752 753 753 753 754 754 755 756 757 758 759 760 760 761 762 763 763 761 759 758 759 759 759 760 760 761 761 762 764 765 765 765 764 764 764 764 764 763 762 761 760 758 757 755 754 753 751 749 747 744 743 740 738 735 733 731 728 724
708 710 711 712 713 715 716 718 720 721 723 725 727 728 728 730 732 733 735 738 740 742 745 747 749 750 751 751 752 753 753 753 754 754 755 756 757 758 759 760 760 761 761 762 760 758 758 758 759 759 760 761 761 762 763 763 764 764 764 764 763 763 763 762 761 761 760 759 757 756 755 754 752 750 748 746 743 741 739 737 735 732 730 727 724
708 710 711 712 713 714 716 717 719 720 722 723 726 727 728 730 732 733 735 736 738 741 744 747 749 750 750 751 752 752 753 753 753 754 755 756 756 757 758 758 757 757 758 759 759 759 759 759 759 760 761 761 762 763 763 763 763 764 764 763 763 762 762 761 760 760 759 758 756 755 754 752 750 749 747 745 743 741 738 736 734 732 729 727 724
708 709 710 712 713 714 715 717 718 720 722 723 725 727 729 730 732 733 734 736 738 740 743 746 748 749 750 751 751 751 752 752 753 753 754 755 756 757 757 756 755 756 757 758 758 759 759 759 759 760 761 761 762 762 762 763 763 763 763 762 762 761 761 760 760 759 758 757 755 754 753 751 749 748 746 744 742 740 738 736 733 731 729 726 723
708 708 710 711 713 714 716 718 719 720 722 723 725 727 728 730 732 733 734 736 737 739 742 745 746 747 748 749 750 751 751 752 753 753 754 755 756 756 755 755 755 756 756 757 758 758 758 759 760 760 761 761 761 762 762 763 763 762 762 761 761 760 760 759 758 758 757 756 754 753 752 750 748 747 745 743 741 739 737 735 733 730 727 725 721
708 709 710 711 713 714 716 717 719 721 722 723 725 726 728 730 731 733 734 735 737 738 740 743 744 745 746 747 749 750 751 751 751 752 753 754 754 754 754 754 755 755 755 756 757 758 758 759 759 760 761 761 761 762 763 762 761 761 761 760 759 759 758 758 757 756 756 755 753 752 751 749 748 746 744 742 740 739 737 735 732 730 727 724 721
708 709 711 712 714 715 716 718 720 721 722 724 725 727 728 730 731 732 733 735 737 738 739 741 742 743 744 746 747 748 748 748 748 749 750 752 752 753 753 753 754 754 755 756 757 757 758 758 759 760 761 762 762 762 762 761 760 760 760 759 758 758 757 757 756 756 755 754 753 752 750 749 747 746 744 742 740 739 736 734 731 729 727 724 721
709 710 711 712 714 715 716 718 720 721 723 724 725 726 728 730 731 732 733 734 736 738 738 739 740 741 743 744 746 746 746 746 746 748 749 750 751 752 752 753 753 753 754 755 756 757 757 757 758 760 760 761 761 761 761 760 759 759 758 758 757 757 756 756 755 755 754 754 753 751 750 749 747 745 743 742 740 738 736 733 731 729 726 724 721
709 709 710 712 713 714 716 718 720 722 723 724 725 727 728 729 731 732 733 734 736 737 738 739 740 741 742 744 745 746 746 746 747 748 749 750 750 751 751 752 752 752 753 753 754 756 757 757 758 759 759 760 761 761 759 759 758 757 757 756 756 756 755 755 754 754 754 753 752 751 750 749 747 745 743 741 739 737 735 733 731 729 726 724 721
707 708 709 711 713 714 716 718 720 722 723 724 726 727 729 730 731 733 734 735 736 736 737 738 740 741 742 743 745 746 746 746 746 748 748 749 749 750 750 751 751 751 752 753 753 755 756 757 757 758 759 759 760 759 758 758 757 756 756 756 755 755 755 754 754 754 753 752 752 751 750 748 746 745 743 741 739 737 735 733 731 729 727 724 721
706 708 710 712 714 716 718 719 720 722 723 725 726 728 729 730 732 732 733 734 735 736 737 738 739 741 742 743 745 745 745 745 745 746 747 747 748 748 748 749 750 751 752 753 753 754 755 756 756 757 758 759 759 758 757 757 756 756 755 755 755 755 755 754 754 753 753 752 751 750 749 748 746 744 742 741 739 737 735 733 731 729 727 725 722
707 708 710 712 714 716 718 719 721 722 724 725 726 728 730 731 731 732 733 734 735 736 737 737 739 740 741 742 743 744 744 743 744 745 745 746 746 747 748 749 750 751 752 752 753 754 754 755 755 756 757 758 758 757 756 756 755 755 755 754 754 754 754 754 754 753 753 752 751 750 749 747 746 744 743 741 739 737 735 733 731 729 727 725 723
708 709 711 712 714 716 718 719 721 722 723 724 725 727 729 730 730 732 733 734 735 736 736 737 738 739 739 740 741 742 742 742 742 743 744 745 746 747 748 749 749 750 751 752 752 753 754 754 755 755 756 756 756 756 755 755 754 754 754 754 754 754 754 753 753 753 752 752 751 750 749 748 746 745 743 742 739 738 736 734 732 730 728 726 723
709 710 711 712 714 716 718 719 721 722 723 724 725 727 728 729 730 732 733 734 735 735 734 734 735 736 736 738 739 739 740 741 740 741 743 744 745 746 747 747 748 749 750 751 751 752 753 754 754 755 755 755 755 755 754 754 754 754 753 753 753 753 753 752 752 752 752 751 751 750 749 748 746 745 743 742 740 738 736 734 732 730 729 726 724
709 711 712 713 714 716 717 719 720 722 723 724 725 726 727 729 730 730 731 733 734 733 732 733 734 734 735 736 737 738 739 740 740 740 741 742 743 745 746 746 747 748 749 749 750 751 752 752 753 754 754 754 754 754 753 753 753 753 753 753 752 752 751 751 751 751 751 750 750 749 749 747 746 745 743 742 740 738 736 735 733 731 729 727 725
709 710 711 713 714 715 717 718 720 721 721 723 724 725 726 727 728 728 729 730 731 731 732 732 733 733 734 735 736 737 738 738 738 739 740 740 741 743 744 745 745 746 747 748 749 750 750 751 752 752 753 753 753 753 752 752 752 752 752 752 751 750 750 750 750 750 749 749 749 749 748 747 746 745 743 742 740 738 737 735 734 732 730 728 726
709 710 712 713 714 715 717 718 719 719 721 722 723 724 725 726 727 727 728 729 729 730 731 731 732 733 733 734 735 736 736 736 737 737 738 739 740 741 742 743 744 744 745 746 747 748 749 749 750 750 751 751 751 751 751 751 752 752 751 751 750 750 750 749 749 748 748 748 748 748 747 746 746 744 743 741 740 739 737 736 734 732 730 728 726
710 711 712 713 714 715 717 717 718 719 721 722 722 723 725 725 726 726 727 728 728 728 729 729 730 731 731 732 732 733 734 735 735 736 736 737 738 739 740 741 742 742 743 744 745 746 747 747 748 748 749 749 750 750 750 750 750 750 750 750 750 749 749 749 748 748 747 747 747 747 747 746 745 744 743 742 740 739 738 737 735 733 731 729 727